Location: Krakow
(50.0830°N, 19.9170°E)
Time: 05:58:56
(UTC+01:00)

Vanguard 1 Rocket - All Passes

Search period start: 10 December 2023 00:00
Search period end: 20 December 2023 00:00
Orbit: 655 x 4218 km, 34.3° (Epoch: 09 December)

Date Brightness Start Highest point End Pass type
(mag) Time Alt. Az. Time Alt. Az. Time Alt. Az.
10 Dec - 02:13:11 10° SSW 02:33:39 33° SSE 02:48:26 10° E visible
10 Dec - 04:41:10 10° WSW 05:01:55 44° S 05:14:13 10° ESE visible
10 Dec - 07:12:57 10° W 07:28:27 36° SSW 07:37:22 10° SE daylight
10 Dec - 09:47:18 10° WSW 09:52:04 13° SW 09:55:54 10° SSW daylight
11 Dec - 01:01:30 10° S 01:20:06 27° SE 01:35:12 10° E visible
11 Dec - 03:26:35 10° SW 03:48:33 42° SSE 04:02:47 10° ESE visible
11 Dec - 05:57:18 10° WSW 06:16:16 43° SSW 06:27:04 10° SE visible
11 Dec - 08:30:13 10° W 08:41:17 24° SW 08:48:25 10° S daylight
11 Dec - 23:52:07 10° S 00:06:49 19° SE 00:20:03 10° E visible
12 Dec - 02:12:59 10° SSW 02:34:50 38° SSE 02:50:41 10° E visible
12 Dec - 04:41:52 10° WSW 05:03:22 46° S 05:16:13 10° ESE visible
12 Dec - 07:14:09 10° W 07:29:52 34° SSW 07:39:05 10° SSE daylight
12 Dec - 09:51:12 10° WSW 09:53:11 11° SW 09:55:01 10° SW daylight
12 Dec - 22:49:14 10° SE 22:54:00 11° SE 22:58:42 10° ESE visible
13 Dec - 01:00:43 10° SSW 01:21:05 31° SSE 01:37:43 10° E visible
13 Dec - 03:27:02 10° SW 03:49:53 46° S 04:04:49 10° ESE visible
13 Dec - 05:58:17 10° WSW 06:17:42 42° SSW 06:28:56 10° SE visible
13 Dec - 08:31:57 10° W 08:42:29 21° SW 08:49:35 10° S daylight
13 Dec - 23:50:15 10° S 00:07:34 24° SE 00:23:20 10° E visible
14 Dec - 02:13:07 10° SW 02:35:59 42° SSE 02:52:46 10° E visible
14 Dec - 04:42:41 10° WSW 05:04:46 47° S 05:18:08 10° ESE visible
14 Dec - 07:15:26 10° W 07:31:09 32° SSW 07:40:39 10° SSE daylight
14 Dec - 22:42:55 10° SSE 22:54:35 15° SE 23:06:02 10° E visible
15 Dec - 01:00:27 10° SSW 01:22:01 36° SSE 01:39:56 10° E visible
15 Dec - 03:27:41 10° WSW 03:51:10 48° S 04:06:45 10° ESE visible
15 Dec - 05:59:21 10° W 06:19:01 41° SSW 06:30:40 10° SE visible
15 Dec - 08:33:56 10° W 08:43:32 18° SW 08:50:23 10° S daylight
15 Dec - 23:49:17 10° S 00:08:18 29° SE 00:25:57 10° E visible
16 Dec - 02:13:33 10° SW 02:37:07 46° SSE 02:54:44 10° E visible
16 Dec - 04:43:37 10° WSW 05:06:05 47° S 05:19:58 10° ESE visible
16 Dec - 07:16:49 10° W 07:32:17 29° SW 07:42:00 10° SSE daylight
16 Dec - 22:40:19 10° SSE 22:55:07 20° SE 23:10:00 10° E visible
17 Dec - 01:00:34 10° SSW 01:22:56 41° SSE 01:41:57 10° E visible
17 Dec - 03:28:29 10° WSW 03:52:24 50° S 04:08:36 10° ESE visible
17 Dec - 06:00:29 10° W 06:20:13 39° SSW 06:32:16 10° SE visible
17 Dec - 08:36:22 10° W 08:44:27 15° SW 08:50:38 10° SSW daylight
17 Dec - 21:37:24 10° SE 21:42:38 11° ESE 21:47:57 10° ESE visible
17 Dec - 23:48:55 10° SSW 00:09:00 33° SE 00:28:11 10° E visible
18 Dec - 02:14:13 10° SW 02:38:12 49° S 02:56:35 10° ESE visible
18 Dec - 04:44:38 10° WSW 05:07:18 47° SSW 05:21:40 10° SE visible
18 Dec - 07:18:20 10° W 07:33:16 26° SW 07:43:06 10° S daylight
18 Dec - 22:39:00 10° S 22:55:37 24° SE 23:12:54 10° E visible
19 Dec - 01:01:01 10° SW 01:23:50 44° SSE 01:43:49 10° E visible
19 Dec - 03:29:26 10° WSW 03:53:35 51° S 04:10:21 10° ESE visible
19 Dec - 06:01:41 10° W 06:21:17 36° SSW 06:33:41 10° SSE visible
19 Dec - 08:39:48 10° WSW 08:45:13 12° WSW 08:49:46 10° SW daylight
19 Dec - 21:32:09 10° SSE 21:42:59 15° SE 21:54:33 10° E visible
